Back to catalog

DELTA 1 DEB

AliveSSO
NORAD 40754·DEBRIS·🇺🇸 United States

Launched Jul 29, 1976 from Vandenberg Space Force Base

Loading…

Next Passes (next 24 hours)

TLE

FreshSource: Space-Track

Epoch: Sep 13, 2026, 08:47 UTC

1 40754U 76077FX  26256.36637762 -.00000041  00000-0  47189-4 0  9997
2 40754 102.5458 223.2800 0093626 319.2001  40.2069 12.25158217 14286

Track DELTA 1 DEB in real time with AllMySat

Download on the App Store